Theta_e
316 315 311 312 319 322 323 322 320 324 331 332 333 339 344 350 343 339 347 352 361 364 365 366 366 365 364 364 364 364 363 363
310 311 317 318 320 321 321 320 320 325 324 335 344 342 349 351 344 341 345 350 361 363 364 365 365 364 364 364 364 364 363 362
308 308 314 320 322 321 321 320 318 324 324 330 347 350 352 350 347 342 344 350 361 363 364 364 364 363 363 363 363 363 363 361
304 307 313 316 320 320 321 321 319 319 326 336 349 348 349 351 348 345 343 354 359 362 363 363 363 363 362 362 362 362 362 362
307 307 309 312 317 317 318 319 318 320 325 341 346 351 350 351 350 345 343 351 356 356 361 363 363 362 362 362 361 362 362 362
308 306 307 313 313 317 316 317 321 324 323 331 348 352 352 351 348 344 343 349 350 352 353 352 356 362 362 362 362 362 361 360
307 307 309 313 311 316 318 316 319 321 326 340 351 352 350 348 347 343 341 344 347 348 349 347 348 356 361 360 360 360 359 359
312 312 310 312 312 313 313 315 317 320 330 338 347 350 347 347 345 343 340 341 344 344 346 345 345 353 351 351 352 352 352 355
311 312 312 312 312 314 312 311 316 318 321 330 341 346 346 346 347 345 342 342 343 345 352 345 344 352 346 348 348 350 352 356
312 312 311 310 313 312 313 314 318 321 321 322 334 341 344 344 345 345 344 342 344 345 351 350 345 348 348 345 347 347 349 354
312 312 312 313 311 311 312 316 318 319 320 322 324 336 341 344 346 347 345 345 345 347 352 355 357 348 349 347 347 349 350 352
311 311 312 309 309 310 312 316 316 317 319 321 326 329 341 344 343 346 349 348 349 348 359 354 357 361 350 351 351 349 349 349
309 310 310 311 307 307 314 316 315 316 319 320 325 336 342 345 347 348 351 353 352 354 357 360 356 358 356 353 351 350 348 354
309 310 310 310 303 310 314 314 314 315 317 319 321 327 333 340 346 350 352 355 356 353 354 360 361 358 354 353 353 351 351 350
305 310 309 307 305 310 314 314 314 315 316 318 319 324 330 329 328 335 350 354 355 361 355 358 364 359 360 363 355 353 352 351
304 308 307 306 306 310 313 313 313 314 316 317 318 326 331 334 338 331 331 352 357 358 365 368 362 364 357 355 354 354 352 352
306 308 305 305 306 309 311 312 312 313 315 316 320 327 330 333 338 342 337 340 354 355 367 362 356 356 355 352 353 353 355 354
305 308 306 305 304 308 310 311 313 313 315 317 321 325 329 334 338 342 344 342 348 355 360 361 358 361 357 355 352 353 351 353
302 306 306 304 303 306 310 312 314 317 319 321 323 325 330 334 339 341 343 344 344 349 357 362 364 360 358 357 355 350 351 350
302 302 298 306 296 304 308 309 313 316 318 320 324 328 332 335 338 341 343 347 350 343 353 357 362 361 366 352 349 348 352 351
Wind_Speed
13 14 17 12 4 6 3 2 3 2 1 6 11 9 7 14 15 19 20 20 19 18 16 14 14 16 17 15 14 13 12 12
12 19 15 4 11 4 3 5 6 5 5 6 9 3 7 10 15 19 21 20 23 18 18 16 14 14 16 16 14 13 12 12
16 17 21 5 4 1 5 3 3 5 4 3 9 3 5 9 14 18 20 20 20 20 18 17 16 14 14 14 13 12 11 11
14 18 14 9 1 5 7 2 0 8 3 9 10 3 4 10 15 17 19 20 18 18 19 18 17 16 14 13 12 11 10 9
17 16 9 4 4 8 9 5 2 6 9 9 8 8 5 10 15 16 19 19 18 18 17 17 16 15 14 13 12 11 10 9
16 14 13 5 3 12 4 10 6 3 7 8 10 9 9 14 15 17 17 19 18 17 17 17 15 14 14 13 12 11 10 10
17 12 10 3 5 14 1 6 10 2 5 8 9 10 9 12 16 16 16 19 19 19 18 17 17 14 14 15 14 11 10 9
10 9 3 5 5 9 6 12 14 10 10 3 6 10 13 13 14 17 19 20 19 19 18 17 14 16 14 13 11 11 12 12
6 6 10 14 10 7 12 14 11 11 6 10 7 9 10 12 15 16 16 15 18 17 16 18 14 12 9 9 9 9 12 10
13 4 11 12 13 16 9 15 15 1 3 6 11 10 12 12 15 15 20 21 18 20 15 15 11 11 11 10 10 9 11 12
11 13 12 13 14 15 16 13 13 9 7 13 11 12 11 9 8 14 17 16 17 18 15 11 9 10 10 10 9 10 10 11
10 14 14 15 17 16 18 12 13 9 12 11 12 14 13 7 6 7 11 16 16 16 14 15 11 9 9 8 9 8 9 10
16 14 15 10 18 19 16 13 8 14 12 8 5 6 10 13 6 4 6 8 15 16 17 14 15 11 9 9 10 10 9 10
18 19 15 14 16 19 17 15 11 14 14 8 8 3 7 3 7 8 6 10 10 13 17 17 13 11 9 10 9 9 9 9
15 6 10 14 15 19 11 8 11 11 12 10 6 10 7 5 5 4 9 9 12 11 15 16 13 11 11 10 9 9 9 9
12 16 13 14 17 16 8 13 12 12 12 9 6 12 7 5 6 3 6 10 9 11 11 11 11 10 10 10 10 11 9 10
10 10 7 15 15 13 12 13 12 13 9 8 2 7 4 5 7 7 5 6 11 11 11 10 12 12 11 11 10 8 5 4
15 11 9 15 18 15 13 12 14 13 10 4 4 4 3 7 7 8 8 5 5 10 11 12 10 9 9 10 10 9 9 9
16 11 10 17 19 14 16 9 6 0 4 5 1 2 7 8 10 10 8 5 2 7 11 11 13 9 8 9 7 11 10 9
16 14 13 22 14 21 17 12 12 9 9 5 3 8 9 11 11 11 11 10 8 2 8 10 11 11 10 9 10 10 7 9
Wind_Direction
255 251 268 127 135 82 90 41 338 7 230 358 64 65 72 95 151 151 141 154 141 149 147 151 152 146 143 145 145 144 148 146
260 263 253 52 116 73 255 163 352 38 239 140 42 41 50 138 150 152 152 158 138 147 145 149 150 150 147 148 148 150 155 153
247 240 267 151 77 265 267 252 40 314 54 112 85 75 143 154 164 158 152 147 152 147 147 148 152 152 149 149 148 153 157 159
245 241 239 259 102 255 269 263 120 324 296 84 108 165 171 160 169 163 151 138 149 148 148 150 154 153 150 150 150 153 156 160
269 280 262 211 196 244 238 310 61 315 288 120 127 102 138 154 161 160 153 142 153 165 153 152 152 152 151 152 156 156 161 164
258 262 267 238 215 247 260 246 52 255 348 11 105 130 145 151 160 159 161 148 161 169 169 169 164 155 156 158 162 165 168 169
252 246 244 232 243 245 282 268 232 189 315 43 126 127 161 155 162 162 167 158 168 173 172 180 169 167 166 169 170 171 179 183
296 336 303 292 240 275 247 249 225 190 130 73 143 166 165 172 170 172 176 171 169 179 174 186 170 162 188 183 191 194 193 184
326 269 285 282 263 252 252 256 252 231 132 147 190 202 200 181 176 178 176 185 179 180 169 193 182 159 187 186 193 197 207 205
278 223 252 256 266 269 262 265 276 202 320 266 179 204 217 195 176 174 191 189 185 177 171 205 186 175 184 197 187 194 197 197
262 255 247 265 256 266 262 251 264 260 258 245 212 194 230 222 219 183 181 186 190 175 181 195 207 184 196 199 187 195 184 190
240 246 239 243 253 247 254 258 246 252 244 240 220 190 182 208 228 243 187 180 196 187 171 195 206 205 203 195 191 209 194 193
245 238 244 237 253 245 243 253 234 239 229 244 267 207 181 175 195 218 201 199 187 196 173 201 197 219 202 203 216 195 217 190
231 210 223 231 258 222 227 220 237 243 228 209 219 315 34 158 171 166 208 188 197 203 190 185 206 205 218 221 209 220 204 200
245 180 239 206 249 252 172 191 240 248 237 215 187 105 38 13 358 309 183 197 200 202 209 192 202 210 215 223 222 220 216 210
237 165 219 230 236 270 175 214 223 234 235 224 211 84 67 31 40 21 284 190 209 202 210 197 190 211 215 222 216 225 217 216
248 231 213 240 248 235 230 227 224 230 214 214 68 70 63 49 41 34 37 271 190 210 198 213 203 200 211 217 217 216 236 296
262 253 218 250 242 248 244 226 230 229 171 115 191 141 62 49 49 51 36 22 259 216 208 208 214 220 217 220 220 212 198 214
254 215 247 263 255 223 230 197 103 121 76 167 175 65 60 60 45 40 31 14 307 264 216 212 233 209 223 245 256 206 197 187
266 246 240 206 252 215 207 177 182 174 192 151 108 77 57 58 41 47 24 20 15 178 235 216 215 241 218 230 233 229 192 195